| time (UTC) | temp F | wind direction | speed knots | gust knots | rain 1hr in | rain 24hr in | rain mn in | humidity % | barometer mb |
| 20260505122036 | 61 | 189 | 0.0 | 0.0 | 0.00 | 0.01 | 0.00 | 54 | 1009.5 |
| 20260505121536 | 61 | 194 | 0.0 | 0.0 | 0.00 | 0.01 | 0.00 | 54 | 1009.4 |
| 20260505121036 | 61 | 194 | 0.0 | 0.0 | 0.00 | 0.01 | 0.00 | 54 | 1009.4 |
| 20260505120539 | 61 | 194 | 0.0 | 0.0 | 0.00 | 0.01 | 0.00 | 54 | 1009.4 |
| 20260505120051 | 60 | 194 | 0.0 | 0.0 | 0.00 | 0.01 | 0.00 | 54 | 1009.6 |
| 20260505115534 | 60 | 194 | 0.0 | 0.0 | 0.00 | 0.01 | 0.00 | 55 | 1009.5 |
| 20260505115034 | 60 | 194 | 0.0 | 0.0 | 0.00 | 0.01 | 0.00 | 54 | 1009.4 |
| 20260505114534 | 60 | 194 | 0.0 | 0.9 | 0.00 | 0.01 | 0.00 | 54 | 1009.4 |
| 20260505114033 | 60 | 194 | 0.0 | 0.9 | 0.00 | 0.01 | 0.00 | 55 | 1009.3 |
| 20260505113539 | 60 | 194 | 0.0 | 0.0 | 0.00 | 0.01 | 0.00 | 55 | 1009.4 |
| 20260505113034 | 60 | 194 | 0.0 | 0.0 | 0.00 | 0.01 | 0.00 | 56 | 1009.2 |
| 20260505112533 | 60 | 194 | 0.0 | 0.9 | 0.00 | 0.01 | 0.00 | 55 | 1009.1 |
| 20260505112033 | 60 | 194 | 0.0 | 0.9 | 0.00 | 0.01 | 0.00 | 56 | 1009.2 |
| 20260505111536 | 60 | 340 | 0.0 | 0.0 | 0.00 | 0.01 | 0.00 | 56 | 1009.2 |
| 20260505111033 | 60 | 340 | 0.0 | 0.0 | 0.00 | 0.01 | 0.00 | 56 | 1009.3 |
| 20260505110530 | 60 | 340 | 0.0 | 0.0 | 0.00 | 0.01 | 0.00 | 55 | 1009.2 |
| 20260505102029 | 61 | 186 | 0.0 | 0.0 | 0.00 | 0.01 | 0.00 | 51 | 1009.1 |
| 20260505101525 | 61 | 226 | 0.0 | 0.0 | 0.00 | 0.01 | 0.00 | 51 | 1009.0 |
| 20260505101023 | 61 | 207 | 0.0 | 0.0 | 0.00 | 0.01 | 0.00 | 51 | 1008.8 |
| 20260505100522 | 61 | 227 | 0.0 | 0.0 | 0.00 | 0.01 | 0.00 | 51 | 1008.8 |
| 20260505100024 | 61 | 220 | 0.0 | 0.0 | 0.00 | 0.01 | 0.00 | 51 | 1008.7 |
| 20260505095523 | 61 | 220 | 0.0 | 0.0 | 0.00 | 0.01 | 0.00 | 51 | 1008.4 |
| 20260505095020 | 61 | 215 | 0.0 | 0.0 | 0.00 | 0.01 | 0.00 | 51 | 1008.5 |
| 20260505094520 | 61 | 193 | 0.0 | 0.0 | 0.00 | 0.01 | 0.00 | 51 | 1008.5 |
| 20260505094021 | 61 | 211 | 0.0 | 0.0 | 0.00 | 0.01 | 0.00 | 51 | 1008.4 |
| 20260505093519 | 61 | 202 | 0.0 | 0.0 | 0.00 | 0.01 | 0.00 | 51 | 1008.4 |
| 20260505093019 | 61 | 208 | 0.0 | 0.0 | 0.00 | 0.01 | 0.00 | 51 | 1008.3 |
| 20260505092519 | 62 | 200 | 0.0 | 0.0 | 0.00 | 0.01 | 0.00 | 50 | 1008.3 |
| 20260505092017 | 62 | 215 | 0.0 | 0.0 | 0.00 | 0.01 | 0.00 | 50 | 1008.3 |
| 20260505091516 | 62 | 218 | 0.0 | 0.0 | 0.00 | 0.01 | 0.00 | 50 | 1008.3 |
| 20260505091014 | 62 | 231 | 0.0 | 0.0 | 0.00 | 0.01 | 0.00 | 49 | 1008.3 |
| 20260505090514 | 62 | 214 | 0.0 | 0.0 | 0.00 | 0.01 | 0.00 | 49 | 1008.4 |
| 20260505090013 | 63 | 198 | 0.0 | 0.0 | 0.00 | 0.01 | 0.00 | 49 | 1008.3 |
| 20260505085513 | 63 | 193 | 0.0 | 0.0 | 0.00 | 0.01 | 0.00 | 49 | 1008.3 |
| 20260505085013 | 63 | 223 | 0.0 | 0.0 | 0.00 | 0.01 | 0.00 | 49 | 1008.2 |
| 20260505084512 | 63 | 223 | 0.0 | 0.0 | 0.00 | 0.01 | 0.00 | 48 | 1008.1 |
| 20260505084011 | 63 | 231 | 0.0 | 0.0 | 0.00 | 0.01 | 0.00 | 48 | 1008.2 |
| 20260505083514 | 63 | 219 | 0.0 | 0.0 | 0.00 | 0.01 | 0.00 | 48 | 1008.1 |
| 20260505083011 | 63 | 213 | 0.0 | 0.0 | 0.00 | 0.01 | 0.00 | 48 | 1008.1 |
| 20260505082512 | 64 | 221 | 0.0 | 0.0 | 0.00 | 0.01 | 0.00 | 47 | 1008.1 |
| 20260505082010 | 64 | 217 | 0.0 | 0.0 | 0.00 | 0.01 | 0.00 | 47 | 1008.1 |
| 20260505081510 | 64 | 220 | 0.0 | 0.0 | 0.00 | 0.01 | 0.00 | 46 | 1008.2 |
| 20260505081007 | 64 | 205 | 0.0 | 0.0 | 0.00 | 0.01 | 0.00 | 46 | 1008.3 |
| 20260505080510 | 64 | 219 | 0.0 | 0.0 | 0.00 | 0.01 | 0.00 | 45 | 1008.3 |
| 20260505080006 | 65 | 227 | 0.0 | 0.0 | 0.00 | 0.01 | 0.00 | 45 | 1008.3 |
| 20260505075504 | 65 | 231 | 0.0 | 0.0 | 0.00 | 0.01 | 0.00 | 45 | 1008.2 |
| 20260505075006 | 65 | 229 | 0.0 | 0.0 | 0.00 | 0.01 | 0.00 | 44 | 1008.2 |
| 20260505074504 | 65 | 223 | 0.0 | 0.0 | 0.00 | 0.01 | 0.00 | 44 | 1008.2 |
| 20260505074003 | 65 | 192 | 0.0 | 0.0 | 0.00 | 0.01 | 0.00 | 44 | 1008.1 |
| 20260505073505 | 65 | 200 | 0.0 | 0.0 | 0.00 | 0.01 | 0.00 | 44 | 1008.0 |
| 20260505073003 | 65 | 219 | 0.0 | 0.0 | 0.00 | 0.01 | 0.00 | 44 | 1007.9 |
| 20260505072501 | 65 | 199 | 0.0 | 0.0 | 0.00 | 0.01 | 0.00 | 44 | 1007.9 |
| 20260505072001 | 66 | 219 | 0.0 | 0.0 | 0.00 | 0.01 | 0.00 | 43 | 1008.0 |
| 20260505071501 | 66 | 229 | 0.0 | 6.1 | 0.00 | 0.01 | 0.00 | 43 | 1007.9 |
| 20260505071100 | 65 | 222 | 0.0 | 10.4 | 0.00 | 0.01 | 0.00 | 43 | 1008.0 |
| 20260505070600 | 66 | 236 | 5.2 | 14.8 | 0.00 | 0.01 | 0.00 | 43 | 1007.9 |
| 20260505070107 | 66 | 221 | 7.8 | 14.8 | 0.00 | 0.01 | 0.00 | 43 | 1007.7 |
| 20260505065559 | 66 | 236 | 4.3 | 14.8 | 0.00 | 0.17 | 0.00 | 43 | 1007.6 |
| 20260505065058 | 66 | 218 | 4.3 | 14.8 | 0.00 | 0.17 | 0.00 | 43 | 1007.7 |
| 20260505064644 | 66 | 243 | 5.2 | 8.7 | 0.00 | 0.17 | 0.00 | 43 | 1007.8 |
| 20260505064159 | 66 | 231 | 3.5 | 6.1 | 0.00 | 0.17 | 0.00 | 43 | 1007.8 |
| 20260505063556 | 66 | 219 | 0.0 | 0.0 | 0.00 | 0.17 | 0.00 | 43 | 1007.7 |
| 20260505063100 | 66 | 207 | 0.0 | 0.0 | 0.00 | 0.17 | 0.00 | 43 | 1007.7 |
| 20260505062556 | 66 | 217 | 0.0 | 0.0 | 0.00 | 0.17 | 0.00 | 43 | 1007.7 |
| 20260505062056 | 66 | 197 | 0.0 | 0.0 | 0.00 | 0.17 | 0.00 | 43 | 1007.6 |
| 20260505061555 | 66 | 200 | 0.0 | 0.0 | 0.00 | 0.17 | 0.00 | 44 | 1007.6 |
| 20260505061055 | 66 | 233 | 0.0 | 0.0 | 0.00 | 0.17 | 0.00 | 43 | 1007.6 |
| 20260505060557 | 66 | 198 | 0.0 | 0.0 | 0.00 | 0.17 | 0.00 | 44 | 1007.5 |
| 20260505060054 | 66 | 198 | 0.0 | 0.0 | 0.00 | 0.17 | 0.00 | 44 | 1007.4 |
| 20260505055553 | 66 | 206 | 0.0 | 0.0 | 0.00 | 0.17 | 0.00 | 44 | 1007.6 |
| 20260505055053 | 66 | 195 | 0.0 | 0.0 | 0.00 | 0.17 | 0.00 | 44 | 1007.6 |
| 20260505054553 | 66 | 204 | 0.0 | 0.0 | 0.00 | 0.17 | 0.00 | 44 | 1007.7 |
| 20260505054152 | 66 | 208 | 0.0 | 0.0 | 0.00 | 0.17 | 0.00 | 44 | 1007.8 |
| 20260505053552 | 66 | 194 | 0.0 | 0.0 | 0.00 | 0.17 | 0.00 | 44 | 1007.8 |
| 20260505053051 | 66 | 200 | 0.0 | 0.9 | 0.00 | 0.17 | 0.00 | 44 | 1007.8 |
| 20260505052551 | 66 | 199 | 0.0 | 0.0 | 0.00 | 0.17 | 0.00 | 44 | 1007.8 |
| 20260505052051 | 66 | 206 | 0.0 | 0.0 | 0.00 | 0.17 | 0.00 | 43 | 1007.8 |
| 20260505051550 | 66 | 204 | 0.0 | 0.0 | 0.00 | 0.17 | 0.00 | 43 | 1007.8 |
| 20260505051051 | 66 | 198 | 0.0 | 0.0 | 0.00 | 0.17 | 0.00 | 43 | 1007.9 |
| 20260505050548 | 66 | 217 | 0.0 | 0.0 | 0.00 | 0.17 | 0.00 | 43 | 1008.0 |
| 20260505041543 | 68 | 181 | 0.0 | 0.0 | 0.00 | 0.17 | 0.00 | 40 | 1008.0 |
| 20260505041143 | 68 | 192 | 0.0 | 0.0 | 0.00 | 0.17 | 0.00 | 40 | 1008.0 |
| 20260505040543 | 68 | 195 | 0.0 | 0.0 | 0.00 | 0.17 | 0.00 | 40 | 1008.0 |
| 20260505040042 | 68 | 210 | 0.0 | 0.0 | 0.00 | 0.17 | 0.00 | 39 | 1008.0 |
| 20260505035540 | 68 | 211 | 0.0 | 0.0 | 0.00 | 0.17 | 0.17 | 39 | 1008.0 |
| 20260505035040 | 69 | 219 | 0.0 | 0.0 | 0.00 | 0.17 | 0.17 | 39 | 1008.0 |
| 20260505034556 | 69 | 228 | 0.0 | 0.0 | 0.00 | 0.17 | 0.17 | 39 | 1008.0 |
| 20260505034040 | 69 | 227 | 0.0 | 0.0 | 0.00 | 0.17 | 0.17 | 38 | 1007.9 |
| 20260505033540 | 69 | 257 | 0.0 | 0.0 | 0.00 | 0.17 | 0.17 | 38 | 1008.0 |
| 20260505033042 | 69 | 233 | 0.0 | 0.0 | 0.00 | 0.17 | 0.17 | 38 | 1007.9 |
| 20260505032540 | 69 | 221 | 0.0 | 0.0 | 0.00 | 0.17 | 0.17 | 38 | 1008.0 |
| 20260505032039 | 69 | 227 | 0.0 | 0.0 | 0.00 | 0.17 | 0.17 | 37 | 1007.9 |
| 20260505031539 | 70 | 228 | 0.0 | 0.0 | 0.00 | 0.17 | 0.17 | 37 | 1007.9 |
| 20260505031038 | 70 | 199 | 0.0 | 0.0 | 0.00 | 0.17 | 0.17 | 37 | 1007.8 |
| 20260505030541 | 70 | 227 | 0.0 | 0.0 | 0.00 | 0.17 | 0.17 | 37 | 1007.7 |
| 20260505030046 | 70 | 210 | 0.0 | 0.0 | 0.00 | 0.17 | 0.17 | 37 | 1007.6 |
| 20260505025538 | 70 | 215 | 0.0 | 0.0 | 0.00 | 0.17 | 0.17 | 37 | 1007.4 |
| 20260505025038 | 70 | 221 | 0.0 | 0.0 | 0.00 | 0.17 | 0.17 | 37 | 1007.4 |
| 20260505024537 | 70 | 236 | 0.0 | 0.0 | 0.00 | 0.17 | 0.17 | 37 | 1007.3 |
| 20260505024037 | 70 | 242 | 0.0 | 0.0 | 0.00 | 0.17 | 0.17 | 38 | 1007.2 |
| 20260505023537 | 70 | 223 | 0.0 | 0.0 | 0.00 | 0.17 | 0.17 | 37 | 1007.2 |
| 20260505023043 | 70 | 194 | 0.0 | 0.0 | 0.00 | 0.17 | 0.17 | 37 | 1007.0 |
| 20260505022537 | 70 | 233 | 0.0 | 5.2 | 0.00 | 0.17 | 0.17 | 37 | 1007.0 |
| 20260505022037 | 70 | 219 | 0.0 | 5.2 | 0.00 | 0.17 | 0.17 | 37 | 1006.9 |
| 20260505021537 | 70 | 219 | 0.0 | 0.0 | 0.00 | 0.17 | 0.17 | 37 | 1006.9 |
| 20260505021035 | 70 | 213 | 0.0 | 0.0 | 0.00 | 0.17 | 0.17 | 37 | 1006.8 |
| 20260505020536 | 71 | 219 | 0.0 | 0.0 | 0.00 | 0.17 | 0.17 | 36 | 1006.7 |
| 20260505020047 | 71 | 232 | 0.0 | 0.0 | 0.00 | 0.17 | 0.17 | 36 | 1006.8 |
| 20260505015535 | 71 | 210 | 0.0 | 0.0 | 0.00 | 0.17 | 0.17 | 36 | 1006.6 |
| 20260505015035 | 71 | 195 | 0.0 | 0.0 | 0.00 | 0.17 | 0.17 | 36 | 1006.5 |
| 20260505014540 | 71 | 216 | 0.0 | 0.0 | 0.00 | 0.17 | 0.17 | 36 | 1006.3 |
| 20260505014036 | 71 | 216 | 0.0 | 5.2 | 0.00 | 0.17 | 0.17 | 36 | 1006.2 |
| 20260505013536 | 71 | 212 | 0.9 | 6.1 | 0.00 | 0.17 | 0.17 | 36 | 1006.0 |
| 20260505013039 | 71 | 216 | 3.5 | 6.1 | 0.00 | 0.17 | 0.17 | 36 | 1005.8 |
| 20260505012536 | 71 | 217 | 3.5 | 8.7 | 0.00 | 0.17 | 0.17 | 36 | 1005.8 |
| 20260505012038 | 72 | 195 | 3.5 | 8.7 | 0.00 | 0.17 | 0.17 | 35 | 1005.7 |
| 20260505011534 | 72 | 190 | 0.9 | 7.8 | 0.00 | 0.17 | 0.17 | 34 | 1005.6 |
| 20260505011033 | 72 | 196 | 4.3 | 13.9 | 0.00 | 0.17 | 0.17 | 34 | 1005.6 |
| 20260505010535 | 72 | 202 | 5.2 | 13.9 | 0.00 | 0.17 | 0.17 | 34 | 1005.7 |
| 20260505010033 | 72 | 188 | 7.0 | 13.0 | 0.00 | 0.17 | 0.17 | 33 | 1005.6 |
| 20260505005533 | 73 | 202 | 0.9 | 5.2 | 0.00 | 0.17 | 0.17 | 33 | 1005.6 |
| 20260505005033 | 73 | 173 | 0.0 | 0.9 | 0.00 | 0.17 | 0.17 | 33 | 1005.5 |
| 20260505004554 | 73 | 199 | 0.0 | 0.0 | 0.00 | 0.17 | 0.17 | 33 | 1005.6 |
| 20260505004031 | 73 | 202 | 0.0 | 0.0 | 0.00 | 0.17 | 0.17 | 33 | 1005.8 |
| 20260505003534 | 73 | 210 | 0.0 | 0.0 | 0.00 | 0.17 | 0.17 | 32 | 1005.8 |
| 20260505003031 | 73 | 214 | 0.0 | 0.0 | 0.00 | 0.17 | 0.17 | 32 | 1005.7 |
| 20260505002530 | 74 | 211 | 0.0 | 0.0 | 0.00 | 0.17 | 0.17 | 32 | 1005.7 |
| 20260505002030 | 74 | 213 | 0.0 | 0.0 | 0.00 | 0.17 | 0.17 | 32 | 1005.9 |
| 20260505001535 | 74 | 223 | 0.0 | 0.0 | 0.00 | 0.17 | 0.17 | 32 | 1005.9 |
| 20260505001032 | 74 | 191 | 0.0 | 0.0 | 0.00 | 0.17 | 0.17 | 33 | 1006.0 |
| 20260505000527 | 74 | 236 | 0.0 | 0.0 | 0.00 | 0.17 | 0.17 | 33 | 1006.0 |
| 20260505000026 | 74 | 226 | 0.0 | 0.0 | 0.00 | 0.17 | 0.17 | 33 | 1006.2 |
| 20260504235526 | 74 | 217 | 0.0 | 0.0 | 0.00 | 0.17 | 0.17 | 33 | 1006.3 |
| 20260504235026 | 74 | 214 | 0.0 | 0.0 | 0.00 | 0.17 | 0.17 | 33 | 1006.3 |
| 20260504234525 | 74 | 182 | 0.0 | 0.0 | 0.00 | 0.17 | 0.17 | 33 | 1006.4 |
| 20260504234024 | 74 | 229 | 0.0 | 0.0 | 0.00 | 0.17 | 0.17 | 33 | 1006.4 |
| 20260504233523 | 75 | 227 | 0.0 | 0.0 | 0.00 | 0.17 | 0.17 | 33 | 1006.6 |
| 20260504233024 | 75 | 213 | 0.0 | 0.0 | 0.00 | 0.17 | 0.17 | 33 | 1006.7 |
| 20260504232522 | 75 | 215 | 0.0 | 0.0 | 0.00 | 0.17 | 0.17 | 33 | 1006.7 |
| 20260504232020 | 75 | 216 | 0.0 | 0.0 | 0.00 | 0.17 | 0.17 | 32 | 1006.9 |
| 20260504231519 | 75 | 228 | 0.0 | 0.0 | 0.00 | 0.17 | 0.17 | 32 | 1007.1 |
| 20260504231019 | 75 | 232 | 0.0 | 0.0 | 0.00 | 0.17 | 0.17 | 32 | 1007.4 |
| 20260504230520 | 76 | 236 | 0.0 | 0.0 | 0.00 | 0.17 | 0.17 | 32 | 1007.5 |
| 20260504230016 | 76 | 224 | 0.0 | 0.0 | 0.00 | 0.17 | 0.17 | 32 | 1007.7 |
| 20260504225515 | 76 | 200 | 0.0 | 0.0 | 0.00 | 0.17 | 0.17 | 32 | 1007.8 |
| 20260504225014 | 76 | 237 | 0.0 | 0.0 | 0.00 | 0.17 | 0.17 | 32 | 1007.8 |
| 20260504224515 | 76 | 244 | 0.0 | 0.0 | 0.00 | 0.17 | 0.17 | 32 | 1007.9 |
| 20260504224014 | 76 | 232 | 0.0 | 0.0 | 0.00 | 0.17 | 0.17 | 32 | 1007.9 |
| 20260504223513 | 76 | 254 | 0.0 | 0.0 | 0.00 | 0.17 | 0.17 | 32 | 1007.9 |
| 20260504223013 | 76 | 225 | 0.0 | 0.0 | 0.00 | 0.17 | 0.17 | 30 | 1008.0 |
| 20260504222514 | 76 | 236 | 0.0 | 0.0 | 0.00 | 0.17 | 0.17 | 31 | 1008.0 |
| 20260504222013 | 76 | 221 | 0.0 | 0.0 | 0.00 | 0.17 | 0.17 | 29 | 1008.1 |
| 20260504221513 | 77 | 261 | 0.0 | 0.0 | 0.00 | 0.17 | 0.17 | 29 | 1008.1 |
| 20260504221012 | 77 | 243 | 0.0 | 0.0 | 0.00 | 0.17 | 0.17 | 29 | 1008.2 |
| 20260504220512 | 77 | 205 | 0.0 | 0.0 | 0.00 | 0.17 | 0.17 | 28 | 1008.1 |
| 20260504220011 | 77 | 207 | 0.0 | 0.0 | 0.00 | 0.17 | 0.17 | 29 | 1007.9 |
| 20260504215512 | 77 | 225 | 0.0 | 0.0 | 0.00 | 0.17 | 0.17 | 30 | 1008.0 |
| 20260504215015 | 77 | 252 | 0.0 | 0.0 | 0.00 | 0.17 | 0.17 | 29 | 1008.0 |
| 20260504214510 | 78 | 217 | 0.0 | 0.0 | 0.00 | 0.17 | 0.17 | 29 | 1008.0 |
| 20260504214009 | 77 | 238 | 0.0 | 0.0 | 0.00 | 0.17 | 0.17 | 29 | 1008.0 |
| 20260504213512 | 77 | 225 | 0.0 | 0.0 | 0.00 | 0.17 | 0.17 | 30 | 1008.0 |
| 20260504213024 | 77 | 227 | 0.0 | 0.0 | 0.00 | 0.17 | 0.17 | 29 | 1008.0 |
| 20260504212509 | 77 | 205 | 0.0 | 4.3 | 0.00 | 0.17 | 0.17 | 30 | 1008.0 |
| 20260504212008 | 77 | 243 | 0.9 | 6.1 | 0.00 | 0.17 | 0.17 | 32 | 1008.0 |
| 20260504211507 | 77 | 232 | 3.5 | 7.0 | 0.00 | 0.17 | 0.17 | 31 | 1008.1 |
| 20260504211006 | 77 | 221 | 4.3 | 7.8 | 0.00 | 0.17 | 0.17 | 30 | 1008.1 |
| 20260504210506 | 77 | 240 | 4.3 | 7.0 | 0.00 | 0.17 | 0.17 | 30 | 1008.1 |
| 20260504210005 | 77 | 234 | 4.3 | 16.5 | 0.00 | 0.17 | 0.17 | 30 | 1008.2 |
| 20260504205505 | 77 | 232 | 5.2 | 7.8 | 0.00 | 0.17 | 0.17 | 30 | 1008.2 |
| 20260504205005 | 76 | 229 | 5.2 | 14.8 | 0.00 | 0.17 | 0.17 | 31 | 1008.2 |
| 20260504204507 | 76 | 248 | 5.2 | 14.8 | 0.00 | 0.17 | 0.17 | 32 | 1008.1 |
| 20260504204004 | 77 | 236 | 7.0 | 14.8 | 0.00 | 0.17 | 0.17 | 34 | 1008.2 |
| 20260504203505 | 77 | 236 | 6.1 | 16.5 | 0.00 | 0.17 | 0.17 | 32 | 1008.2 |
| 20260504203004 | 77 | 217 | 6.1 | 17.4 | 0.00 | 0.17 | 0.17 | 34 | 1008.2 |
| 20260504202504 | 77 | 233 | 6.1 | 17.4 | 0.00 | 0.17 | 0.17 | 33 | 1008.3 |
| 20260504202004 | 77 | 236 | 9.6 | 15.6 | 0.00 | 0.17 | 0.17 | 32 | 1008.2 |
| 20260504201502 | 76 | 195 | 7.0 | 17.4 | 0.00 | 0.17 | 0.17 | 33 | 1008.1 |
| 20260504201002 | 76 | 227 | 0.0 | 0.0 | 0.00 | 0.17 | 0.17 | 35 | 1008.2 |
| 20260504200502 | 76 | 225 | 0.0 | 0.0 | 0.00 | 0.17 | 0.17 | 34 | 1008.4 |
| 20260504200004 | 77 | 186 | 0.0 | 0.0 | 0.00 | 0.17 | 0.17 | 35 | 1008.3 |
| 20260504195600 | 77 | 251 | 0.0 | 0.0 | 0.00 | 0.17 | 0.17 | 34 | 1008.4 |
| 20260504195059 | 77 | 238 | 0.0 | 0.0 | 0.00 | 0.17 | 0.17 | 35 | 1008.6 |
| 20260504194659 | 76 | 170 | 0.0 | 0.0 | 0.00 | 0.17 | 0.17 | 35 | 1008.6 |
| 20260504194057 | 75 | 227 | 0.0 | 0.0 | 0.00 | 0.17 | 0.17 | 36 | 1008.8 |
| 20260504193557 | 76 | 244 | 0.0 | 0.0 | 0.00 | 0.17 | 0.17 | 35 | 1008.9 |
| 20260504193057 | 76 | 236 | 0.0 | 0.0 | 0.00 | 0.17 | 0.17 | 35 | 1009.0 |
| 20260504192555 | 76 | 234 | 0.0 | 0.0 | 0.00 | 0.17 | 0.17 | 36 | 1009.1 |
| 20260504192055 | 76 | 245 | 0.0 | 0.0 | 0.00 | 0.17 | 0.17 | 37 | 1009.1 |
| 20260504191615 | 76 | 211 | 0.0 | 0.0 | 0.00 | 0.17 | 0.17 | 34 | 1009.3 |
| 20260504191052 | 76 | 249 | 0.0 | 0.0 | 0.00 | 0.17 | 0.17 | 36 | 1009.4 |
| 20260504190552 | 75 | 221 | 0.0 | 0.0 | 0.00 | 0.17 | 0.17 | 35 | 1009.4 |
| 20260504190051 | 75 | 246 | 0.0 | 0.0 | 0.00 | 0.17 | 0.17 | 35 | 1009.7 |
| 20260504185551 | 75 | 211 | 0.0 | 0.0 | 0.00 | 0.17 | 0.17 | 36 | 1009.6 |
| 20260504185050 | 75 | 226 | 0.0 | 0.0 | 0.00 | 0.17 | 0.17 | 35 | 1009.8 |
| 20260504184600 | 75 | 244 | 0.0 | 0.0 | 0.00 | 0.17 | 0.17 | 35 | 1009.8 |
| 20260504184052 | 75 | 250 | 0.0 | 0.0 | 0.00 | 0.17 | 0.17 | 37 | 1009.8 |
| 20260504183551 | 74 | 198 | 0.0 | 0.0 | 0.00 | 0.17 | 0.17 | 38 | 1009.8 |
| 20260504183049 | 74 | 207 | 0.0 | 5.2 | 0.00 | 0.17 | 0.17 | 36 | 1009.8 |
| 20260504182553 | 74 | 242 | 0.9 | 5.2 | 0.00 | 0.17 | 0.17 | 36 | 1009.7 |
| 20260504182048 | 74 | 208 | 0.0 | 0.0 | 0.00 | 0.17 | 0.17 | 35 | 1009.9 |
| 20260504181547 | 75 | 247 | 0.0 | 0.0 | 0.00 | 0.17 | 0.17 | 38 | 1009.8 |
| 20260504181046 | 74 | 219 | 0.0 | 0.0 | 0.00 | 0.17 | 0.17 | 37 | 1009.8 |
| 20260504180547 | 74 | 225 | 0.0 | 0.0 | 0.00 | 0.17 | 0.17 | 38 | 1009.9 |
| 20260504180045 | 74 | 225 | 0.0 | 0.0 | 0.00 | 0.17 | 0.17 | 38 | 1009.9 |
| 20260504175546 | 74 | 234 | 0.0 | 3.5 | 0.00 | 0.17 | 0.17 | 37 | 1009.9 |
| 20260504175044 | 74 | 204 | 0.0 | 3.5 | 0.00 | 0.17 | 0.17 | 38 | 1010.0 |
| 20260504174542 | 74 | 236 | 0.0 | 0.0 | 0.00 | 0.17 | 0.17 | 40 | 1009.9 |
| 20260504174042 | 73 | 204 | 0.0 | 0.0 | 0.00 | 0.17 | 0.17 | 36 | 1009.9 |
| 20260504173540 | 73 | 210 | 0.0 | 0.0 | 0.00 | 0.17 | 0.17 | 38 | 1010.0 |
| 20260504173039 | 72 | 192 | 0.0 | 0.0 | 0.00 | 0.17 | 0.17 | 41 | 1010.0 |
| 20260504172539 | 72 | 233 | 0.0 | 0.0 | 0.00 | 0.17 | 0.17 | 39 | 1010.1 |
| 20260504172042 | 72 | 202 | 0.0 | 0.0 | 0.00 | 0.17 | 0.17 | 40 | 1010.1 |
| 20260504171540 | 72 | 240 | 0.0 | 0.0 | 0.00 | 0.17 | 0.17 | 39 | 1010.2 |
| 20260504171037 | 71 | 198 | 0.0 | 13.0 | 0.00 | 0.17 | 0.17 | 41 | 1010.2 |
| 20260504170537 | 71 | 202 | 7.8 | 13.9 | 0.00 | 0.17 | 0.17 | 41 | 1010.2 |
| 20260504151018 | 66 | 211 | 0.0 | 0.0 | 0.00 | 0.16 | 0.16 | 46 | 1011.0 |
| 20260504150521 | 66 | 209 | 0.0 | 0.0 | 0.00 | 0.16 | 0.16 | 46 | 1011.0 |
| 20260504141008 | 61 | 188 | 4.3 | 8.7 | 0.00 | 0.16 | 0.16 | 50 | 1011.8 |
| 20260504140504 | 61 | 181 | 5.2 | 8.7 | 0.00 | 0.16 | 0.16 | 50 | 1011.8 |
| 20260504130551 | 57 | 174 | 0.0 | 0.0 | 0.00 | 0.16 | 0.16 | 54 | 1012.1 |